Location: Unspecified
(37.6100°N, 2.7800°W)
Time: 19:17:48
(UTC+00:00)

Tiangong 2 - Visible Passes

Search period start: 18 November 2017 00:00
Search period end: 28 November 2017 00:00
Orbit: 386 x 391 km, 42.8° (Epoch: 18 November)

Date Brightness Start Highest point End Pass type
(mag) Time Alt. Az. Time Alt. Az. Time Alt. Az.
23 Nov 4.7 06:27:25 10° SSE 06:28:07 11° SE 06:28:50 10° SE visible
25 Nov 3.8 06:05:51 10° SSW 06:08:19 21° SE 06:10:49 10° E visible
26 Nov 4.3 05:09:12 10° SSE 05:10:19 11° SE 05:11:26 10° ESE visible
27 Nov 2.3 05:45:45 11° SW 05:48:33 40° SSE 05:51:35 10° ENE visible
